GFSWCAN_700_temp_159.txt.gz
Temp
3 3 2 2 2 2 2 2 2 2 2 1 1 1 2 2 2 2 2 2 2 2 2 2 2 2 2 1 1 1 1 2 2 2 3 3 3 4 4 4 4 4 4 5 5 5 6 7 8 9 9 10 10 11
3 2 2 2 1 1 2 2 2 2 1 1 1 1 1 2 2 1 2 2 2 2 2 1 1 1 1 0 0 1 1 1 0 1 1 2 2 2 3 3 3 3 3 4 4 6 6 7 8 8 9 9 9 10
3 2 1 2 1 2 2 2 2 1 1 1 1 1 1 1 1 1 1 1 1 1 2 1 2 1 1 0 -0 1 0 -0 0 -0 -0 0 1 1 2 2 3 3 3 3 4 5 5 6 6 7 8 8 9 9
1 1 0 1 2 2 2 1 1 0 0 1 1 1 1 1 1 1 1 1 0 0 1 1 1 0 -0 -0 -0 -0 -0 -1 -1 -1 -1 -0 0 0 1 1 1 2 2 3 3 4 4 5 6 7 7 7 8 9
1 1 1 1 1 1 1 0 0 0 1 1 1 1 1 1 1 1 1 0 0 -0 0 1 1 0 -1 -1 -1 -1 -1 -1 -1 -1 -1 -1 -1 -1 -0 0 1 2 2 2 3 3 2 4 5 6 6 5 7 8
1 1 1 1 1 0 0 -0 -0 0 0 1 1 1 1 0 0 0 0 -0 -0 -0 0 1 -0 -0 -1 -1 -1 -1 -1 -1 -1 -1 -1 -1 -1 -1 -1 -0 2 2 2 2 3 2 2 2 4 4 5 5 6 8
1 1 0 0 -0 -0 -0 -0 -0 0 0 1 0 0 0 0 -0 -0 -1 -1 -1 -1 -1 -0 -1 -2 -1 -1 -1 -1 -1 -1 -1 -1 -1 -1 -1 -1 -1 0 3 2 2 2 2 2 2 3 4 4 4 5 5 7
0 0 -0 -0 -1 -1 -1 -1 -0 0 0 0 0 -0 -0 -1 -1 -1 -1 -2 -2 -2 -2 -1 -1 -1 -1 -1 -1 -1 -1 -1 -1 -1 -1 -1 -1 -1 -0 4 2 3 3 3 2 2 2 3 3 4 4 5 6 6
-0 -0 -1 -1 -1 -1 -1 -0 -0 0 0 0 -0 -1 -1 -1 -1 -1 -2 -2 -2 -2 -2 -1 -1 -1 -1 -1 -1 -0 -0 -0 -0 -0 -0 -1 -1 -0 2 2 2 2 2 2 2 2 3 3 4 4 5 5 6 7
-1 -1 -1 -1 -1 -1 -1 -0 -0 -0 -0 -0 -1 -1 -2 -2 -2 -2 -3 -3 -3 -3 -2 -2 -2 -1 -2 -1 -1 -1 -1 -1 -1 -0 -0 -0 1 2 1 1 2 2 2 2 2 3 2 3 4 5 5 5 5 7
-1 -2 -2 -2 -1 -1 -1 -1 -0 -0 -1 -1 -1 -2 -3 -2 -3 -3 -3 -3 -3 -2 -2 -2 -1 -2 -1 -1 -2 -1 -1 -1 -1 -0 0 0 1 1 1 1 1 2 2 2 3 3 2 3 4 5 5 4 5 5
-2 -2 -2 -2 -2 -1 -1 -1 -1 -1 -1 -2 -2 -2 -3 -3 -3 -3 -3 -2 -2 -2 -1 -1 -1 -1 -2 -2 -2 -1 -1 -1 -1 -1 -0 1 1 0 1 1 1 2 2 2 3 3 2 2 3 4 4 4 5 5
-2 -3 -3 -2 -2 -1 -1 -1 -1 -1 -2 -2 -3 -3 -3 -3 -3 -2 -2 -2 -2 -2 -2 -2 -2 -2 -1 -1 -1 -1 -1 -1 -1 -1 -0 1 0 0 1 1 1 1 2 2 2 2 2 2 3 4 5 5 4 5
-3 -3 -2 -2 -2 -1 -1 -2 -2 -2 -2 -3 -3 -4 -3 -3 -2 -2 -2 -2 -2 -2 -2 -2 -2 -2 -1 -1 -1 -1 -1 -1 -1 -0 0 -0 1 1 1 1 1 2 2 3 3 3 3 3 3 3 3 4 4 5
-3 -2 -2 -2 -2 -2 -2 -2 -2 -2 -3 -3 -3 -4 -3 -3 -3 -2 -2 -2 -2 -2 -2 -1 -1 -1 -1 -1 -1 -1 -1 -0 -0 -0 -0 1 1 1 2 2 2 2 2 3 3 3 3 3 3 4 4 5 5 5
-2 -2 -2 -2 -2 -2 -2 -2 -2 -3 -4 -4 -3 -3 -4 -3 -3 -3 -3 -2 -2 -2 -1 -1 -1 -1 -1 -1 -1 -1 -0 -0 -0 0 0 0 1 1 2 2 2 2 2 3 3 4 4 3 3 4 4 4 5 5
-2 -2 -2 -2 -2 -2 -2 -3 -3 -4 -4 -3 -3 -3 -3 -3 -3 -2 -2 -2 -2 -2 -2 -2 -1 -1 -1 -0 -0 -0 -0 0 1 -0 -0 0 0 1 2 2 2 2 2 3 3 4 4 4 4 3 3 3 4 4
-2 -3 -3 -3 -3 -3 -3 -4 -4 -4 -3 -4 -4 -3 -3 -3 -3 -2 -2 -2 -2 -2 -2 -2 -1 -1 -1 -1 -0 -0 0 0 0 0 0 1 1 1 2 1 2 2 2 2 2 3 3 3 3 3 3 3 3 3
-3 -3 -3 -3 -4 -4 -4 -5 -5 -4 -4 -4 -4 -4 -4 -3 -4 -3 -2 -2 -2 -2 -2 -1 -1 -1 -1 -1 -0 0 0 0 1 1 1 1 2 1 1 2 2 2 1 2 2 3 3 3 3 3 3 3 3 3
-3 -3 -3 -4 -4 -5 -5 -5 -5 -4 -4 -4 -4 -4 -4 -4 -4 -3 -3 -2 -2 -2 -2 -1 -1 -1 -1 -1 -0 0 0 0 1 2 1 2 2 2 2 2 2 2 2 2 2 2 3 3 3 3 3 3 3 3
-3 -3 -4 -4 -4 -5 -5 -5 -4 -4 -3 -3 -3 -3 -3 -3 -3 -3 -2 -2 -2 -1 -0 -0 -0 -1 -0 -0 0 0 0 0 1 1 1 2 2 2 2 2 2 2 2 1 2 2 2 2 2 2 3 3 3 3
-4 -4 -4 -4 -5 -5 -4 -4 -4 -4 -3 -3 -3 -3 -2 -2 -2 -2 -2 -1 -1 0 -0 -0 0 0 0 1 1 1 1 1 1 1 1 1 2 2 2 2 2 2 2 2 2 2 2 2 2 2 3 3 3 3
-4 -5 -5 -5 -5 -5 -4 -4 -4 -4 -3 -3 -2 -2 -2 -2 -2 -1 -1 -1 -0 -0 0 0 1 0 1 1 1 1 1 0 0 1 1 1 2 2 2 2 2 2 2 2 2 2 2 2 2 2 3 3 3 3
-5 -5 -5 -5 -5 -5 -4 -4 -4 -3 -3 -3 -3 -2 -2 -2 -1 -1 -1 -1 -0 -0 -0 0 1 1 0 0 0 1 0 1 -0 0 1 1 1 1 1 2 2 2 2 1 2 2 2 2 2 2 2 2 2 2
-5 -5 -5 -5 -4 -4 -4 -3 -3 -3 -3 -3 -2 -2 -1 -2 -1 -1 -0 -0 -0 -0 -0 -0 -0 0 1 0 -0 -0 -1 -0 -0 -0 -0 0 0 -0 1 1 1 0 1 1 1 1 1 1 1 1 1 1 1 2
-5 -5 -5 -4 -5 -5 -4 -3 -3 -3 -3 -2 -2 -2 -2 -1 -1 -1 -1 -1 -1 -1 -0 -0 -0 -0 -0 -0 -1 -1 -1 -0 -0 -0 -1 -0 -1 -1 -1 -0 0 1 0 -0 -0 -0 -0 1 1 1 1 1 1 0
-5 -5 -5 -5 -4 -4 -4 -3 -3 -3 -2 -2 -2 -2 -2 -2 -1 -1 -1 -1 -1 -1 -1 -0 -0 -0 -0 -1 -1 -1 -0 -1 -1 -1 -0 -1 -1 -1 -1 -0 0 -0 -1 -0 -0 0 0 0 0 0 0 0 -0 -0
-5 -6 -5 -5 -4 -4 -4 -3 -3 -3 -2 -2 -2 -2 -2 -1 -2 -1 -1 -1 -1 -1 -1 -1 -0 -1 -1 -0 -0 -1 -0 -0 -0 -1 -1 -1 -2 -1 -1 -0 -0 -1 -1 -0 -0 -0 0 0 0 0 -0 -0 -0 -0
-5 -5 -5 -5 -5 -4 -4 -3 -4 -3 -3 -2 -2 -2 -2 -1 -1 -1 -1 -1 -1 -1 -1 -1 -1 -1 -0 -1 -1 -1 -1 -1 -1 -1 -1 -1 -1 -1 -1 -1 -1 -0 -0 0 -0 -0 -0 -0 -1 -1 -1 -0 -0 -0
-5 -5 -5 -5 -5 -4 -3 -4 -3 -3 -3 -2 -2 -2 -1 -1 -0 -1 -1 -1 -1 -2 -2 -1 -1 -1 -1 -1 -1 -1 -1 -1 -1 -1 -1 -1 -0 -0 -1 -1 -1 -0 -0 0 0 -0 -0 -1 -1 -1 -1 -1 -1 -1
-5 -5 -4 -4 -4 -4 -3 -3 -3 -2 -2 -2 -2 -1 -1 -0 -1 -1 -1 -1 -1 -1 -1 -0 -1 -1 -1 -1 -0 -0 -0 -1 -1 -1 -1 -0 -0 -0 -0 -0 -0 -0 -0 -0 -0 -0 -0 -1 -1 -1 -1 -1 -1 -1
-4 -4 -4 -3 -3 -3 -3 -2 -2 -1 -1 -1 -1 -1 -1 -1 -1 -1 -1 -1 -1 -1 -1 -0 -0 -0 0 0 0 0 0 0 -0 -0 -0 -0 -0 -0 -0 -0 -0 -1 -1 -1 -1 -1 -1 -1 -1 -1 -1 -1 -1 -1
-3 -3 -3 -3 -3 -3 -2 -2 -0 -1 -1 -1 -1 -1 -1 -1 -1 -1 -1 -1 -1 -1 -1 -1 -0 -0 0 0 0 0 0 -0 -0 -0 -0 -0 -0 -0 -0 -0 -1 -1 -1 -1 -1 -1 -1 -1 -1 -1 -1 -1 -1 -1

GFSWCAN_700_temp_162.txt.gz
Temp
2 2 2 2 2 2 1 1 1 2 2 2 1 1 1 2 1 2 2 2 2 3 2 2 2 2 1 1 1 1 1 1 2 2 2 2 3 3 4 4 4 4 4 4 5 4 5 6 7 8 8 9 10 10
2 2 3 2 1 1 2 1 2 2 1 1 1 1 1 1 1 1 2 2 2 2 2 1 2 2 2 1 1 1 1 1 0 1 1 1 2 2 3 3 3 3 4 3 4 5 5 5 5 6 8 8 9 9
2 2 2 1 1 1 1 1 1 1 1 0 0 1 1 1 1 1 1 1 1 2 2 1 1 1 1 1 1 1 -0 -1 -0 -0 -0 -0 0 1 1 2 2 2 3 3 3 4 4 5 5 6 6 7 8 9
1 1 1 1 1 1 1 1 1 1 0 0 1 1 1 1 1 1 1 1 1 1 1 1 1 1 1 0 0 -0 -1 -1 -1 -1 -1 -1 -1 -0 -0 0 1 1 1 2 2 3 3 4 5 5 6 7 7 7
1 1 1 1 1 1 1 1 1 0 0 0 1 1 0 0 1 1 1 0 0 0 1 1 1 1 0 -1 -1 -1 -1 -1 -1 -1 -1 -1 -1 -1 -1 -1 -0 1 1 1 2 3 2 4 4 4 5 6 6 7
0 -0 1 0 1 0 0 0 0 0 0 0 0 0 0 0 0 0 -0 -0 -0 -0 0 1 -0 -1 -1 -1 -1 -1 -1 -1 -1 -1 -1 -1 -1 -1 -1 -1 -0 1 1 1 1 1 2 3 3 3 3 3 5 6
0 0 0 0 0 -0 -0 -0 -0 0 0 0 0 0 0 -0 -0 -1 -1 -1 -1 -0 -0 -0 -1 -2 -2 -2 -2 -2 -1 -1 -1 -1 -1 -1 -1 -2 -2 -1 2 1 0 1 1 1 1 2 2 2 2 3 4 5
0 0 -0 -0 -0 -0 -0 -0 -0 -0 0 -0 -0 -0 -0 -1 -1 -1 -1 -1 -1 -1 -1 -1 -1 -1 -1 -1 -1 -1 -1 -1 -1 -1 -1 -1 -1 -1 -1 2 1 1 1 2 3 2 2 2 2 3 3 3 4 5
-0 -1 -1 -1 -1 -1 -1 -1 -0 -0 -0 -0 -0 -1 -1 -1 -2 -1 -2 -2 -2 -2 -2 -1 -1 -1 -1 -1 -1 -1 -1 -1 -1 -1 -1 -1 -1 -1 2 1 1 1 1 1 1 2 2 2 2 2 2 3 4 5
-1 -1 -1 -1 -2 -1 -1 -1 -1 -0 -0 -1 -1 -1 -2 -2 -3 -3 -3 -3 -4 -3 -2 -2 -2 -2 -2 -1 -1 -1 -1 -1 -1 -1 -1 -1 0 1 1 0 1 1 1 2 2 2 2 2 2 2 3 3 5 5
-1 -1 -2 -2 -2 -2 -1 -1 -1 -1 -1 -1 -2 -2 -3 -2 -3 -3 -3 -3 -3 -3 -2 -2 -1 -2 -1 -2 -2 -1 -1 -1 -2 -1 -1 -0 0 1 1 1 1 1 1 2 2 2 3 3 2 2 2 4 4 5
-2 -2 -2 -2 -2 -2 -1 -1 -1 -1 -1 -1 -2 -2 -3 -3 -3 -3 -3 -2 -2 -2 -2 -2 -2 -2 -2 -1 -2 -2 -1 -1 -1 -1 -1 -0 0 -0 0 1 1 1 1 2 3 3 3 3 2 1 2 3 4 5
-2 -3 -3 -2 -2 -2 -1 -1 -1 -1 -2 -2 -3 -3 -3 -4 -3 -3 -2 -2 -2 -2 -2 -2 -2 -2 -2 -1 -1 -2 -1 -1 -1 -1 -1 -1 0 0 1 1 1 1 2 2 2 2 2 2 2 2 2 3 3 4
-2 -2 -3 -2 -2 -2 -2 -1 -2 -2 -2 -3 -3 -4 -3 -3 -2 -2 -3 -2 -2 -2 -2 -2 -2 -2 -1 -2 -1 -1 -1 -1 -1 -1 -1 -0 0 1 1 1 1 2 2 2 2 2 3 3 3 3 2 3 4 4
-3 -3 -2 -2 -2 -2 -2 -2 -2 -2 -3 -3 -3 -4 -4 -3 -3 -3 -2 -2 -2 -2 -2 -1 -1 -2 -1 -1 -1 -1 -1 -0 -0 -0 -0 -0 1 1 1 2 2 2 2 2 2 2 3 3 3 3 3 3 4 4
-3 -2 -2 -2 -2 -2 -2 -2 -2 -3 -3 -3 -3 -3 -4 -4 -3 -3 -2 -2 -2 -2 -2 -1 -1 -1 -1 -1 -1 -0 -1 -1 -1 -0 0 0 1 1 2 2 2 2 2 2 3 3 3 4 3 3 3 4 4 5
-3 -2 -2 -2 -2 -2 -2 -2 -3 -3 -4 -3 -3 -3 -3 -3 -3 -3 -3 -2 -2 -2 -2 -1 -1 -1 -1 -0 -0 -1 -1 -0 -0 0 1 0 0 1 1 1 2 2 1 2 2 3 3 3 3 4 4 4 5 4
-3 -2 -2 -2 -3 -3 -3 -3 -4 -4 -4 -4 -4 -3 -3 -3 -3 -3 -3 -3 -2 -2 -2 -1 -2 -1 -1 -1 -1 -1 -0 0 0 0 0 1 1 1 1 1 2 1 1 2 2 3 3 3 3 4 3 3 3 3
-3 -3 -3 -3 -3 -3 -4 -4 -4 -4 -4 -4 -4 -4 -4 -4 -3 -3 -3 -3 -3 -2 -2 -2 -1 -1 -1 -0 -1 -0 0 1 1 1 1 1 1 2 2 2 2 1 1 2 2 3 3 3 3 3 3 3 3 3
-3 -3 -3 -3 -4 -4 -4 -4 -4 -4 -4 -4 -4 -4 -4 -4 -3 -3 -3 -2 -2 -2 -2 -2 -1 -1 -1 -0 -0 -0 0 0 1 1 1 1 2 2 2 2 2 2 1 2 2 3 3 3 3 3 3 3 2 2
-3 -3 -4 -4 -4 -4 -4 -4 -4 -4 -3 -3 -3 -3 -3 -3 -3 -3 -3 -2 -2 -2 -1 -1 -1 -0 -0 -0 0 0 0 1 1 1 1 1 2 2 2 2 2 2 1 1 2 2 2 2 2 3 3 3 3 3
-4 -4 -4 -4 -4 -4 -4 -5 -5 -4 -4 -3 -3 -3 -2 -2 -2 -2 -2 -2 -1 -1 -1 -1 -0 -0 0 0 1 1 1 0 1 1 1 1 1 2 2 2 2 2 2 2 2 2 2 2 2 2 3 3 3 2
-4 -4 -4 -4 -5 -5 -5 -5 -5 -4 -3 -3 -2 -2 -2 -2 -2 -2 -2 -2 -1 -1 -0 -0 -0 0 0 0 1 1 1 0 0 0 0 1 1 1 2 2 2 2 2 2 1 1 2 2 2 2 3 3 3 2
-5 -5 -5 -5 -5 -5 -4 -4 -4 -4 -3 -3 -3 -3 -2 -2 -2 -2 -1 -1 -0 -0 -1 -0 -0 0 0 1 1 0 0 0 0 0 0 0 0 1 1 1 1 1 1 1 2 1 1 1 1 1 2 2 2 2
-5 -5 -5 -5 -5 -4 -4 -4 -4 -4 -3 -3 -3 -2 -2 -2 -2 -2 -1 -0 -0 -1 -0 -1 -0 -0 0 0 0 -0 -0 -0 -1 -0 0 0 -1 -1 -0 0 0 -0 -0 0 1 1 1 1 1 1 1 1 1 2
-5 -5 -5 -5 -5 -4 -4 -4 -3 -3 -3 -3 -2 -3 -2 -2 -1 -1 -1 -1 -1 -1 -0 -0 -1 -0 -0 -1 -1 -1 -1 -0 -0 -0 0 -1 -1 -0 -0 -0 -0 0 -0 -0 -0 0 0 0 0 0 1 1 1 0
-5 -5 -5 -5 -5 -5 -4 -4 -3 -3 -3 -2 -3 -3 -3 -2 -2 -2 -2 -1 -1 -1 -0 -0 -0 -1 -1 -1 -1 -0 -0 -1 -1 -1 -1 -1 -1 -1 -0 0 0 0 -0 -0 0 0 1 1 1 1 1 1 1 1
-5 -5 -5 -5 -5 -5 -4 -4 -3 -3 -3 -3 -3 -2 -3 -3 -2 -2 -1 -2 -1 -1 -1 -0 -1 -1 -1 -1 -1 -0 -1 -1 -1 -1 -1 -1 -0 -0 0 -0 -0 0 0 0 0 -0 -0 -0 0 0 0 0 0 0
-5 -5 -5 -5 -4 -4 -4 -4 -3 -3 -3 -3 -3 -3 -3 -3 -2 -1 -1 -1 -1 -1 -1 -1 -1 -1 -1 -1 -1 -1 -1 -1 -1 -1 -1 -1 -0 0 1 1 0 0 0 0 -0 -0 0 0 0 0 0 0 0 0
-5 -5 -5 -5 -5 -5 -4 -4 -4 -3 -3 -3 -2 -2 -2 -2 -1 -1 -1 -1 -1 -2 -2 -2 -1 -1 -1 -1 -1 -1 -1 -1 -2 -1 -1 -1 -0 0 0 0 0 0 0 0 -0 -0 -0 -1 -0 -0 -0 -0 -0 -0
-5 -5 -5 -4 -4 -4 -4 -3 -3 -3 -2 -2 -2 -2 -1 -1 -1 -2 -1 -2 -2 -1 -1 -1 -1 -0 -0 -0 -0 -0 -1 -1 -1 -1 -1 -1 -0 -0 -0 -0 -0 -0 -0 -0 -0 -1 -1 -1 -1 -1 -1 -1 -1 -1
-4 -4 -4 -3 -3 -3 -3 -3 -2 -2 -1 -1 -1 -1 -1 -2 -1 -1 -1 -2 -1 -1 -1 -0 0 0 1 1 0 0 -0 -0 -0 -0 -0 -1 -1 -1 -1 -1 -1 -1 -1 -1 -1 -1 -1 -1 -1 -1 -1 -1 -1 -1
-3 -3 -3 -3 -3 -2 -2 -2 -2 -1 -1 -1 -1 -1 -1 -1 -1 -2 -1 -1 -1 -1 -1 -0 -0 0 0 0 0 0 0 -0 -0 -0 -0 -1 -1 -1 -1 -1 -1 -1 -1 -1 -1 -2 -2 -2 -2 -2 -2 -2 -2 -2

GFSWCAN_700_temp_165.txt.gz
Temp
2 2 2 2 1 2 2 2 1 1 2 2 2 2 2 1 2 2 2 2 2 3 2 3 2 2 2 1 1 1 1 2 1 1 1 2 2 3 3 3 4 4 4 4 4 4 5 5 6 6 7 7 9 9
2 2 2 2 2 1 1 1 1 1 1 1 1 1 1 1 1 1 2 2 2 2 2 2 2 2 2 1 1 1 0 1 0 0 0 1 1 2 2 3 3 3 3 3 4 4 5 5 5 6 6 6 7 8
2 1 1 2 1 1 -1 -0 1 1 1 1 1 1 1 1 2 1 1 2 2 2 2 1 2 2 1 1 1 1 -0 -1 -0 -0 -0 -0 0 0 1 1 2 2 3 2 3 3 4 4 4 4 5 5 6 8
2 2 2 2 1 1 1 0 1 1 0 0 1 1 1 1 1 1 1 1 1 1 1 1 1 1 1 1 0 0 -1 -1 -1 -1 -1 -1 -1 -1 -0 -0 0 1 1 1 1 2 3 3 3 4 5 5 5 6
2 2 1 0 0 0 0 1 1 0 0 0 0 1 1 1 1 0 0 1 1 0 1 1 1 1 1 0 -1 -1 -1 -1 -1 -1 -1 -1 -1 -1 -1 -1 -1 -1 -0 -0 0 2 2 3 3 3 4 4 5 5
2 1 1 -0 -0 0 1 0 0 -0 -0 -0 0 0 1 1 0 0 -0 0 -0 0 0 1 -0 -0 -0 -1 -1 -1 -1 -2 -2 -2 -2 -1 -1 -2 -1 -1 -1 0 -0 -0 0 1 1 2 3 3 4 4 4 4
2 1 1 0 0 0 0 -0 -0 -0 -0 -0 0 0 0 0 -0 -1 -1 -1 -1 -0 -0 -0 -1 -2 -2 -2 -2 -1 -1 -2 -2 -2 -1 -1 -1 -1 -1 -1 2 0 -0 0 1 1 2 3 3 3 2 3 4 4
1 0 0 0 -0 -0 -0 -0 -0 -0 -0 -0 -0 -0 -0 -0 -1 -1 -1 -1 -1 -1 -1 -1 -1 -1 -2 -1 -1 -1 -1 -1 -1 -1 -1 -1 -1 -1 -1 2 1 -0 0 0 0 1 2 2 2 2 2 2 3 4
0 0 -0 -1 -1 -1 -1 -1 -1 -0 -0 -0 -0 -0 -1 -1 -2 -1 -2 -2 -2 -2 -2 -1 -1 -1 -1 -1 -1 -1 -1 -1 -1 -1 -1 -1 -1 -1 2 1 1 0 0 1 1 0 1 2 2 2 2 2 3 4
-0 -0 -1 -1 -1 -1 -2 -1 -1 -1 -0 -0 -1 -1 -1 -2 -2 -2 -4 -4 -4 -3 -2 -1 -1 -2 -2 -2 -2 -1 -2 -1 -1 -1 -1 -1 -0 0 -0 -0 0 1 0 1 1 2 2 1 1 2 2 2 3 4
-1 -1 -1 -2 -2 -2 -2 -1 -1 -1 -1 -1 -1 -2 -2 -2 -3 -4 -4 -3 -3 -2 -2 -2 -2 -2 -2 -2 -2 -2 -1 -1 -1 -1 -1 -0 0 0 0 1 1 1 1 1 1 2 2 2 2 2 2 3 3 4
-2 -2 -2 -2 -2 -2 -1 -1 -1 -1 -1 -2 -2 -2 -3 -3 -4 -4 -3 -3 -2 -2 -2 -2 -2 -2 -2 -2 -1 -2 -1 -2 -1 -1 -1 -1 -0 0 -0 -0 0 1 1 1 1 1 2 3 2 3 3 3 3 5
-2 -2 -3 -3 -3 -2 -2 -1 -1 -1 -2 -2 -2 -3 -3 -4 -3 -3 -3 -3 -2 -2 -2 -2 -2 -2 -2 -1 -1 -1 -1 -1 -1 -1 -1 -1 -0 0 1 1 1 1 1 1 1 2 2 2 2 2 2 2 3 4
-3 -2 -2 -3 -2 -2 -1 -1 -1 -2 -2 -2 -3 -3 -3 -3 -3 -3 -3 -2 -2 -2 -2 -2 -2 -2 -2 -1 -1 -1 -1 -1 -1 -1 -0 0 -0 0 1 1 1 1 1 2 2 2 2 3 3 3 3 3 3 4
-2 -2 -3 -2 -2 -2 -2 -2 -2 -2 -2 -3 -2 -5 -3 -3 -3 -3 -3 -3 -3 -2 -2 -1 -1 -2 -2 -1 -1 -1 -1 -1 -1 -0 0 0 0 1 1 1 1 1 1 2 2 3 3 3 3 3 3 3 3 3
-3 -4 -3 -2 -2 -2 -2 -2 -2 -2 -3 -3 -3 -3 -3 -3 -3 -3 -3 -2 -2 -2 -2 -1 -1 -2 -1 -1 -1 -1 -1 -1 -0 0 -0 -0 -0 0 0 1 1 1 1 2 2 3 3 3 3 3 3 3 3 3
-4 -3 -3 -2 -2 -2 -2 -2 -2 -3 -3 -3 -3 -3 -3 -3 -3 -3 -3 -3 -3 -2 -2 -2 -2 -1 -1 -1 -1 -1 -1 -1 -0 -0 0 0 0 1 1 1 1 1 1 2 2 3 3 3 3 3 3 3 4 4
-3 -3 -3 -3 -3 -2 -3 -3 -3 -3 -3 -3 -3 -3 -3 -3 -3 -3 -3 -3 -3 -2 -2 -2 -2 -1 -1 -1 -1 -1 -0 -0 0 0 1 1 1 1 1 1 1 1 2 2 3 3 3 3 3 3 3 3 4 4
-3 -3 -3 -3 -3 -3 -3 -3 -4 -3 -4 -4 -4 -4 -4 -4 -3 -3 -3 -3 -3 -3 -2 -2 -2 -1 -1 -1 -1 0 0 0 1 1 1 1 1 1 2 2 1 1 2 2 3 3 3 3 3 3 3 3 3 3
-3 -3 -3 -3 -3 -4 -4 -4 -3 -3 -4 -4 -4 -4 -4 -4 -4 -3 -3 -3 -3 -3 -3 -2 -1 -1 -1 -0 -0 0 1 1 1 1 1 1 2 2 2 2 1 1 2 2 2 3 3 2 2 2 2 2 2 2
-4 -3 -3 -3 -4 -4 -4 -4 -4 -4 -3 -3 -3 -4 -3 -3 -3 -3 -3 -3 -3 -2 -1 -1 -1 -1 -1 -0 0 0 1 1 1 1 1 2 2 2 2 2 1 1 2 2 1 2 2 2 2 2 2 3 2 2
-4 -4 -4 -4 -4 -4 -4 -4 -4 -4 -3 -3 -3 -3 -3 -2 -3 -3 -2 -2 -2 -2 -1 -1 -0 -0 -0 -0 -0 0 1 0 0 0 1 1 1 1 2 2 1 1 1 2 2 2 2 2 2 1 2 2 2 3
-4 -4 -4 -4 -4 -4 -5 -5 -5 -4 -3 -3 -2 -2 -2 -2 -2 -2 -2 -2 -2 -1 -1 -0 -0 -0 0 0 0 0 0 0 0 0 0 0 1 1 1 1 1 2 2 1 1 2 2 2 2 2 2 2 2 2
-4 -4 -4 -4 -4 -5 -4 -4 -4 -4 -3 -3 -3 -3 -2 -2 -2 -2 -2 -1 -1 -1 -0 -0 -0 -0 0 0 0 -0 0 -0 -0 -0 -0 -0 0 0 1 0 0 1 1 1 1 1 1 1 1 2 2 2 2 2
-5 -5 -5 -5 -4 -5 -4 -4 -4 -3 -3 -3 -3 -2 -2 -3 -2 -2 -1 -1 -0 -0 -0 -1 -0 -0 -0 -0 -1 -1 -0 -1 -1 -1 -0 -1 -1 -1 -1 -0 0 0 -0 0 1 1 1 1 1 1 1 1 1 1
-5 -5 -5 -5 -5 -4 -4 -4 -4 -3 -3 -3 -3 -2 -2 -2 -2 -2 -2 -1 -1 -0 -1 -0 -0 -1 -1 -1 -1 -1 -1 -1 -2 -1 -1 -1 -0 -0 -0 -0 0 1 1 1 1 1 1 1 1 1 1 1 1 1
-5 -5 -5 -5 -5 -4 -4 -4 -3 -3 -3 -2 -3 -3 -3 -3 -2 -2 -2 -1 -1 -1 -1 -0 -1 -0 -1 -1 -1 -1 -1 -1 -1 -1 -1 -1 -0 -0 -0 -0 0 0 1 1 1 1 1 1 1 1 1 1 1 1
-5 -5 -5 -5 -5 -5 -4 -4 -3 -3 -3 -3 -3 -3 -3 -3 -3 -2 -2 -2 -1 -1 -0 -1 -1 -1 -1 -1 -1 -1 -1 -1 -1 -1 -1 -1 -0 -0 0 0 0 0 -0 -0 -0 0 0 0 0 0 0 0 0 0
-5 -5 -5 -5 -5 -4 -4 -4 -3 -3 -3 -3 -3 -3 -3 -3 -3 -2 -1 -2 -1 -1 -1 -1 -1 -1 -1 -1 -1 -1 -1 -1 -1 -1 -1 -0 0 0 1 1 1 1 0 0 0 0 0 0 0 0 0 0 -0 -0
-5 -4 -5 -5 -5 -4 -4 -4 -4 -3 -3 -3 -3 -2 -2 -2 -1 -1 -1 -2 -1 -1 -1 -1 -1 -1 -1 -1 -1 -1 -1 -1 -1 -1 -0 0 0 0 1 1 0 0 0 0 0 -0 -0 -0 -0 -0 -0 -0 -0 -0
-4 -4 -4 -4 -4 -4 -4 -3 -3 -3 -2 -2 -2 -1 -1 -1 -1 -1 -2 -2 -2 -2 -2 -1 -1 -1 -0 -0 -0 -1 -1 -1 -1 -1 -0 -0 0 0 0 0 0 0 0 -0 -0 -0 -1 -1 -1 -1 -1 -1 -1 -1
-3 -3 -4 -3 -3 -3 -3 -2 -2 -2 -2 -1 -1 -1 -1 -1 -2 -2 -2 -2 -2 -1 -1 -0 -0 0 0 0 0 0 -0 -0 -0 -0 -0 -0 -0 -0 -0 -0 -0 -0 -0 -1 -1 -1 -1 -1 -1 -1 -1 -1 -1 -1
-3 -3 -3 -3 -3 -3 -3 -3 -2 -2 -2 -2 -1 -2 -1 -1 -2 -2 -1 -1 -1 -1 -1 -0 0 0 0 0 0 0 0 -0 -0 -0 -0 -0 -0 -0 -1 -1 -1 -1 -1 -1 -2 -2 -2 -2 -2 -2 -2 -2 -2 -2

GFSWCAN_700_temp_168.txt.gz
Temp
2 2 2 2 2 2 2 2 2 1 2 2 2 2 2 2 2 2 2 2 2 2 2 3 2 2 2 2 0 0 2 1 1 2 3 4 4 5 5 5 5 6 6 6 7 7 8 7 6 6 6 6 7 7
3 2 2 2 2 2 2 2 1 0 1 1 2 2 2 2 2 2 2 2 2 2 2 2 2 2 2 2 1 1 -0 1 -0 1 2 2 3 3 3 4 5 4 5 6 7 7 6 6 5 5 6 6 6 7
3 3 2 2 2 2 2 1 1 1 1 1 1 1 1 2 2 2 2 2 2 2 2 2 2 2 1 1 1 1 -1 -0 -0 0 -0 1 1 2 3 4 3 3 3 3 4 5 4 4 4 4 4 5 5 6
3 3 2 2 2 2 -0 -0 1 1 1 1 1 1 1 1 1 1 1 1 1 1 1 1 1 1 1 1 0 0 0 -0 -0 -0 -1 0 1 1 2 2 2 2 1 2 3 3 3 3 3 2 2 4 4 4
3 3 2 2 2 1 0 0 1 1 1 0 0 1 1 1 1 1 1 1 1 1 1 1 1 1 1 1 -0 -1 -1 -1 -1 -1 -1 -1 -0 -0 1 1 1 2 2 2 2 3 2 2 2 2 3 4 4 4
3 3 2 2 1 1 1 1 0 0 0 0 0 0 0 1 1 0 0 0 0 0 1 0 0 -0 -1 -1 -1 -1 -1 -1 -1 -1 -1 -1 -1 -1 -0 1 1 1 1 1 1 1 1 1 1 2 3 3 4 4
3 2 2 1 1 1 0 0 0 0 0 0 0 0 0 0 0 -0 -0 -0 -0 -0 0 0 -2 -1 -1 -2 -1 -1 -1 -1 -1 -2 -2 -1 -1 -1 -1 -1 1 1 1 0 0 -0 -0 0 1 2 2 3 4 4
2 2 1 1 0 0 -0 -0 -0 -0 -0 -0 0 0 0 -0 -0 -1 -1 -1 -1 -0 -0 -1 -2 -2 -1 -2 -1 -1 -1 -1 -1 -1 -1 -1 -1 -1 -1 1 1 0 -0 -0 -0 -0 0 0 0 2 2 3 3 4
2 2 1 0 -0 -0 -1 -1 -1 -1 -0 -0 -0 -0 -0 -1 -1 -1 -2 -1 -1 -1 -1 -1 -2 -1 -1 -1 -1 -1 -1 -1 -1 -1 -1 -1 -0 -0 0 0 0 -0 -0 -0 -0 -0 1 1 2 2 2 2 3 2
1 1 0 -0 -1 -1 -1 -1 -1 -1 -0 -0 -0 -1 -1 -1 -2 -2 -3 -4 -4 -3 -2 -2 -1 -1 -1 -1 -1 -1 -1 -1 -1 -0 -0 -1 -0 0 -0 -0 -0 0 1 1 1 1 1 2 2 2 2 2 1 1
1 -0 -1 -1 -1 -1 -1 -1 -1 -1 -0 -0 -1 -1 -2 -2 -3 -4 -3 -3 -3 -2 -2 -2 -2 -2 -1 -1 -1 -1 -1 -1 -1 -1 -1 -0 0 0 0 0 0 0 1 1 1 1 1 2 2 3 3 3 3 3
-1 -1 -1 -2 -2 -2 -1 -1 -1 -1 -1 -1 -1 -2 -2 -3 -4 -3 -3 -2 -2 -2 -2 -1 -2 -1 -1 -1 -1 -1 -1 -1 -1 -1 -1 -1 -1 -0 -0 1 1 0 1 2 1 1 1 2 2 3 3 3 3 3
-2 -2 -2 -3 -3 -2 -1 -1 -1 -1 -1 -1 -2 -2 -3 -3 -3 -3 -3 -2 -2 -2 -2 -2 -1 -1 -1 -1 -1 -1 -1 -1 -1 -1 -1 -1 -0 -0 0 0 1 1 1 1 1 2 2 2 2 3 3 3 3 2
-3 -2 -2 -3 -2 -2 -1 -1 -1 -1 -1 -2 -2 -2 -3 -3 -3 -3 -2 -2 -2 -2 -2 -1 -1 -1 -1 -1 -1 -1 -1 -1 -1 -1 -0 -0 -1 0 0 1 1 1 2 2 2 2 2 2 2 2 3 2 2 2
-3 -2 -3 -3 -2 -2 -1 -1 -1 -1 -2 -2 -2 -3 -4 -4 -3 -3 -2 -2 -2 -2 -2 -2 -1 -1 -1 -1 -1 -1 -1 -1 -1 -1 -1 -1 -0 0 1 1 1 1 1 2 2 2 2 3 3 3 2 3 3 3
-3 -3 -3 -3 -2 -2 -1 -1 -1 -2 -2 -2 -2 -2 -3 -3 -3 -3 -3 -3 -3 -2 -2 -1 -1 -1 -1 -1 -1 -1 -1 -1 -0 0 -0 0 0 1 1 1 1 1 1 1 1 2 3 3 3 3 3 3 3 3
-4 -4 -3 -3 -2 -2 -2 -2 -2 -2 -2 -2 -2 -2 -2 -3 -3 -4 -3 -3 -2 -2 -2 -2 -1 -1 -1 -1 -1 -1 -1 -0 -0 0 0 1 1 1 2 2 1 1 2 2 2 3 2 2 3 3 3 3 3 3
-3 -3 -3 -2 -2 -2 -2 -2 -3 -2 -2 -3 -3 -4 -3 -3 -3 -3 -3 -3 -3 -3 -2 -2 -2 -1 -1 -1 -1 -1 -1 -1 0 0 1 1 1 1 1 1 1 1 2 2 2 3 3 3 3 3 3 3 3 4
-3 -3 -3 -3 -3 -3 -3 -3 -3 -3 -3 -3 -3 -4 -4 -4 -3 -3 -3 -3 -3 -3 -2 -2 -2 -1 -1 -1 -1 -0 -0 0 1 1 1 1 1 2 2 1 1 2 2 3 3 3 3 3 2 3 3 3 3 4
-4 -4 -3 -3 -3 -3 -3 -3 -3 -3 -3 -4 -4 -4 -4 -4 -4 -4 -4 -4 -3 -3 -3 -2 -1 -1 -1 -1 -0 0 0 1 1 1 1 1 1 1 1 1 1 1 1 2 2 2 2 2 2 2 3 2 2 3
-4 -4 -3 -3 -3 -3 -3 -4 -3 -3 -3 -3 -3 -3 -3 -3 -3 -4 -3 -3 -3 -3 -2 -2 -2 -1 -0 -0 0 0 1 1 1 1 1 1 2 2 1 1 0 1 1 1 2 2 2 2 2 3 3 3 2 2
-4 -4 -4 -4 -4 -4 -4 -4 -4 -4 -3 -4 -3 -3 -3 -3 -2 -3 -2 -2 -2 -2 -2 -1 -1 -0 0 0 0 0 1 0 0 0 1 1 1 1 1 1 1 1 1 2 2 2 2 2 2 2 2 3 2 2
-4 -4 -4 -4 -4 -4 -4 -4 -4 -4 -3 -3 -3 -2 -2 -2 -2 -2 -1 -1 -2 -1 -1 -1 -0 0 0 0 0 1 0 0 -0 -0 -0 0 0 1 0 1 1 1 1 1 0 1 2 2 2 2 2 2 2 2
-5 -5 -4 -4 -4 -4 -4 -4 -4 -4 -3 -3 -3 -2 -2 -2 -1 -1 -1 -1 -1 -1 -1 -0 -0 0 0 0 0 0 -0 -0 -1 -0 -0 -1 -1 -0 0 0 1 1 1 1 1 1 1 1 1 2 2 2 1 1
-5 -5 -5 -4 -4 -4 -4 -4 -4 -4 -3 -3 -3 -2 -2 -2 -2 -2 -1 -1 -1 -0 -0 -0 -0 -0 -0 -0 -1 -1 -1 -1 -1 -1 -0 -2 -2 -1 -2 -0 0 0 -0 0 0 0 0 0 1 1 1 1 1 1
-5 -5 -4 -5 -5 -4 -5 -4 -4 -3 -3 -3 -2 -2 -3 -2 -2 -2 -1 -1 -1 -0 -1 -0 -0 -0 -0 -1 -1 -1 -1 -1 -2 -1 -0 -0 -2 -1 -2 -2 -1 1 0 1 1 1 1 1 1 1 1 1 1 1
-5 -5 -4 -4 -4 -4 -4 -4 -3 -3 -3 -3 -3 -3 -3 -2 -2 -2 -2 -1 -1 -0 -0 -0 -0 -1 -1 -1 -1 -1 -1 -1 -1 -1 -1 -1 -0 -0 -0 -0 0 1 0 0 0 1 1 1 1 1 1 1 1 1
-4 -4 -5 -4 -4 -4 -4 -4 -3 -3 -3 -2 -3 -3 -3 -3 -3 -2 -2 -1 -1 -1 -1 -1 -0 -2 -2 -2 -2 -1 -1 -1 -1 -1 -2 -1 -0 -0 0 1 1 1 1 1 0 0 0 0 0 1 1 1 1 1
-4 -4 -4 -5 -5 -5 -4 -3 -3 -3 -3 -3 -3 -3 -3 -3 -2 -2 -2 -1 -1 -1 -1 -1 -1 -2 -1 -1 -2 -1 -1 -2 -2 -1 -2 -2 -0 0 0 0 0 0 0 0 0 0 0 0 0 0 0 0 0 0
-4 -4 -5 -5 -5 -4 -4 -3 -3 -3 -3 -2 -2 -2 -2 -2 -2 -2 -1 -2 -2 -2 -2 -1 -1 -1 -1 -1 -1 -1 -1 -2 -2 -2 -1 -0 -0 0 0 0 0 0 0 0 0 0 0 -0 -0 -0 -0 -0 -0 -0
-4 -4 -4 -4 -4 -5 -4 -3 -3 -2 -2 -2 -2 -2 -2 -2 -2 -2 -2 -2 -1 -1 -1 -1 -1 -1 -1 -1 -2 -2 -1 -1 -1 -0 -0 -0 -0 0 0 0 -0 -0 -0 -0 -1 -1 -1 -1 -1 -1 -1 -1 -1 -1
-4 -3 -4 -4 -4 -3 -3 -2 -2 -2 -2 -1 -1 -1 -1 -1 -2 -2 -2 -2 -2 -1 -1 -1 -1 -1 -0 -0 -0 -0 -0 -0 -0 -0 -0 -0 0 -0 -0 -0 -0 -0 -1 -1 -1 -1 -1 -1 -1 -2 -2 -2 -2 -2
-3 -3 -3 -3 -3 -3 -3 -3 -2 -2 -2 -2 -1 -1 -1 -1 -2 -2 -2 -2 -1 -1 -0 -0 0 0 0 0 -0 -0 -0 -0 0 0 0 0 0 -0 -0 -0 -0 -1 -1 -1 -1 -2 -2 -2 -2 -2 -2 -2 -2 -2

GFSWCAN_700_temp_171.txt.gz
Temp
4 4 3 3 3 3 3 3 3 3 2 2 2 2 3 3 2 3 3 3 2 3 2 3 3 3 2 1 2 3 3 3 3 4 5 7 7 8 8 8 8 8 7 7 9 9 9 9 9 9 8 7 6 6
4 4 4 3 3 3 3 3 3 2 2 2 2 2 2 2 2 2 3 3 2 2 2 3 3 3 3 2 2 1 2 1 3 4 5 5 6 7 7 7 7 7 7 7 8 7 6 6 7 6 6 6 6 5
4 4 4 3 3 3 3 3 2 1 1 1 2 2 2 2 2 2 2 2 2 3 3 2 -0 3 2 2 2 1 0 1 1 1 1 4 4 5 5 5 5 5 5 4 5 7 6 5 5 5 5 5 5 4
4 4 4 3 3 3 3 2 1 1 1 1 1 1 1 1 2 2 2 2 1 1 1 0 1 2 2 2 2 2 1 -0 0 -0 1 2 3 3 4 4 4 5 5 4 4 4 5 5 4 4 4 3 4 5
4 4 3 3 3 3 2 2 1 1 1 1 1 1 1 1 1 1 1 1 1 1 0 1 0 -0 1 1 1 1 1 1 -1 -0 1 2 2 2 2 2 3 4 4 4 5 4 3 4 4 3 3 3 3 3
4 4 3 3 3 2 2 2 1 1 1 1 1 1 1 1 1 1 1 0 0 0 1 1 -1 -1 -1 -0 0 -0 -1 -2 -1 -1 1 1 1 1 0 2 3 3 3 3 3 3 3 3 3 3 2 2 2 2
3 3 3 3 2 2 1 1 1 1 1 1 1 1 1 1 1 0 -0 -0 -0 -0 0 0 1 -1 0 -0 -1 -1 -1 -1 -1 -0 -0 0 -0 -1 0 0 1 2 2 2 2 2 2 2 2 2 2 2 2 2
3 3 3 2 2 2 1 1 0 0 0 0 1 1 1 0 0 -0 -1 -1 -1 -0 -0 -1 0 -0 -1 -1 -1 -1 -1 -1 -1 -1 -0 -0 -0 -0 -0 1 1 1 1 2 2 2 2 2 2 1 2 2 2 2
3 3 2 2 2 1 0 0 0 0 0 0 0 0 0 -0 -0 -1 -1 -1 -1 -1 -1 -1 -1 -1 -0 -0 -0 -1 -0 -0 -0 -0 0 -0 1 0 1 1 1 1 1 1 1 1 1 2 1 2 2 2 2 2
2 2 2 1 1 1 -0 -0 0 0 0 0 0 -0 0 -1 -1 -1 -2 -3 -3 -2 -1 -0 -2 -1 -1 -1 -1 -0 -0 -0 0 1 0 0 1 0 0 0 0 1 1 1 1 1 1 2 1 2 2 2 2 2
2 1 1 0 0 -0 -0 -0 0 0 0 0 -0 -1 -1 -2 -2 -3 -3 -2 -2 -1 -1 -1 -1 -1 -1 -1 -1 -1 -0 -1 -1 -0 -0 -0 0 -0 0 0 0 0 1 1 1 1 2 2 2 2 2 2 2 2
1 0 -0 -0 -0 -1 -1 -0 -0 -0 -0 -0 -1 -1 -2 -3 -3 -3 -2 -1 -1 -1 -1 -1 -1 -1 -1 -1 -1 -1 -1 -1 -1 -1 -1 -1 -0 -0 -0 0 1 1 1 1 1 2 2 2 2 2 3 3 3 2
-0 -1 -1 -1 -1 -1 -1 -1 -0 -0 -0 -1 -1 -2 -3 -3 -3 -3 -1 -1 -1 -1 -1 -1 -1 -1 -0 -1 -1 -1 -1 -1 -1 -1 -1 0 -0 -0 1 1 1 1 1 2 2 2 2 2 3 3 3 3 4 4
-1 -2 -2 -1 -1 -2 -1 -1 -1 -1 -1 -1 -2 -2 -4 -3 -2 -2 -1 -1 -1 -1 -1 -1 -1 -1 -1 -1 -1 -1 -1 -1 -1 -1 -0 -0 0 0 1 1 1 1 1 2 2 2 2 3 3 3 3 3 3 3
-2 -3 -2 -2 -2 -2 -1 -1 -1 -1 -1 -2 -2 -3 -2 -1 -1 -2 -2 -2 -1 -1 -1 -1 -1 -0 -0 -1 -1 -1 -0 -1 -0 -0 0 0 1 1 1 1 1 1 2 2 2 2 2 2 3 3 3 3 3 3
-3 -3 -2 -2 -2 -2 -1 -1 -1 -1 -1 -2 -2 -2 -2 -2 -1 -2 -2 -2 -2 -1 -1 -1 -0 -1 -1 -1 -0 -1 -1 -0 -0 0 0 1 1 2 2 2 1 2 2 2 2 2 2 3 3 3 3 3 3 4
-3 -3 -3 -3 -2 -2 -2 -1 -1 -2 -2 -1 -3 -2 -3 -2 -2 -2 -2 -2 -2 -1 -2 -1 -1 -1 -0 -0 -0 0 -0 -0 0 1 1 1 1 2 2 2 2 2 2 2 3 3 3 3 3 3 3 3 4 4
-3 -3 -3 -3 -2 -2 -2 -2 -2 -2 -2 -2 -3 -2 -2 -3 -3 -2 -2 -2 -2 -2 -2 -1 -1 -1 -0 0 0 0 -0 0 1 1 1 2 2 1 1 1 2 2 2 3 3 3 2 2 3 3 3 3 3 4
-3 -3 -3 -3 -2 -2 -2 -2 -3 -2 -4 -3 -3 -3 -3 -2 -3 -3 -2 -2 -2 -2 -2 -1 -1 -0 -0 0 -0 0 0 0 1 1 1 1 1 1 0 1 1 2 2 2 3 2 3 3 2 2 3 3 4 4
-4 -4 -3 -3 -3 -3 -3 -3 -3 -3 -4 -3 -3 -3 -3 -3 -3 -2 -2 -2 -2 -2 -2 -1 -0 -0 -0 -0 -0 0 0 1 1 1 1 1 1 1 1 0 1 1 2 2 2 1 2 2 2 3 3 3 3 3
-4 -4 -3 -3 -3 -3 -3 -4 -4 -3 -4 -3 -3 -3 -2 -3 -2 -3 -2 -1 -1 -1 -1 -0 0 0 -0 -0 0 1 1 1 1 1 1 1 1 1 1 1 1 1 2 2 2 2 2 2 2 3 3 2 3 3
-4 -4 -4 -4 -4 -4 -3 -5 -5 -4 -4 -3 -3 -2 -2 -2 -2 -2 -2 -1 -1 -0 -1 -1 -1 -0 0 1 1 1 1 1 0 0 -0 -0 1 1 1 1 1 1 2 2 2 2 2 1 2 2 2 2 2 2
-4 -4 -4 -4 -4 -4 -4 -4 -4 -3 -3 -2 -2 -2 -2 -1 -1 -2 -1 -1 -1 -1 -1 -0 -0 0 1 1 1 1 0 0 -0 -0 -0 -0 -0 0 0 0 0 1 1 0 1 1 1 2 2 2 2 2 2 1
-4 -5 -5 -6 -5 -4 -5 -4 -4 -4 -3 -2 -2 -2 -2 -1 -1 -1 -1 -1 -1 -0 -0 -0 0 1 1 1 0 0 -0 -1 -1 -1 -1 -1 -1 -1 0 -0 -1 -0 -0 -1 0 1 1 1 1 1 1 2 1 1
-5 -5 -5 -5 -5 -5 -5 -4 -3 -3 -2 -2 -2 -2 -2 -1 -1 -1 -1 -1 -1 -0 0 -0 0 0 0 0 -0 -1 -1 -1 -1 -1 -1 -0 -0 -1 -0 -1 -1 -1 -2 -1 -1 -1 0 1 1 1 1 1 1 1
-6 -5 -5 -6 -5 -4 -4 -3 -3 -3 -2 -2 -2 -2 -2 -2 -2 -2 -2 -0 -0 -1 0 -1 -0 -0 -0 -0 -1 -1 -1 -1 -1 -1 -1 -1 -1 -1 -1 -1 -1 -2 -2 -2 -2 -2 -1 -1 -1 -0 1 1 1 1
-6 -6 -5 -4 -5 -4 -4 -3 -3 -2 -2 -2 -2 -2 -2 -2 -2 -1 -2 -1 0 0 -0 -1 -0 -1 -1 -1 -2 -2 -1 -1 -1 -2 -2 -2 -2 -2 -1 -2 -0 -1 -2 -1 -0 0 -0 0 1 1 1 1 1 1
-6 -5 -5 -5 -4 -4 -3 -3 -2 -2 -2 -2 -2 -2 -2 -2 -2 -2 -1 -1 -1 -1 -0 -1 -1 -2 -1 -1 -2 -1 -1 -1 -1 -1 -1 -1 -2 -2 -2 1 1 1 0 0 1 1 1 1 1 0 0 0 0 0
-5 -6 -5 -5 -4 -4 -4 -3 -3 -2 -2 -3 -3 -3 -2 -2 -2 -2 -1 -1 -1 -1 -1 -0 -1 -1 -1 -1 -1 -1 -1 -1 -1 -0 -1 -1 -2 -2 -2 -2 -1 1 1 1 0 0 0 0 0 0 -0 -0 -0 0
-5 -5 -5 -5 -5 -4 -3 -3 -3 -3 -2 -2 -2 -2 -3 -3 -2 -1 -1 -1 -1 -1 -1 -1 -1 -1 -1 -1 -1 -1 -1 -1 -1 -1 -1 -2 -2 -2 -1 -1 -1 -1 -1 -2 -1 -0 0 -0 -0 -0 -0 -1 -1 -1
-5 -5 -5 -4 -4 -3 -3 -3 -3 -2 -2 -2 -2 -2 -2 -2 -1 -2 -1 -1 -2 -2 -2 -1 -1 -1 -1 -0 -1 -1 -1 -2 -0 -0 -1 -1 -0 -0 -0 -1 -1 -1 -1 -1 -1 -1 -3 -3 -1 -1 -1 -1 -1 -1
-5 -5 -4 -4 -3 -4 -4 -2 -2 -2 -2 -1 -1 -1 -1 -2 -2 -2 -2 -2 -2 -1 -1 -1 -1 -1 -1 -1 -1 -1 -1 -0 0 0 0 0 0 -0 -1 -1 -1 -1 -2 -2 -1 -1 -1 -1 -2 -2 -2 -2 -2 -2
-5 -4 -4 -4 -4 -4 -3 -3 -3 -2 -2 -2 -1 -1 -2 -1 -2 -2 -2 -1 -2 -2 -1 -1 -0 -0 -0 -0 0 0 0 0 0 0 0 0 -0 -0 -1 -1 -1 -1 -1 -3 -3 -3 -2 -2 -2 -2 -2 -2 -2 -2